Flag for Canada Weather past 2 weeks in Dawson Creek, British Columbia, Canada

Now
75 °F

Sunny.


Feels Like: 77 °F
Forecast: 45 / 78 °F
Wind: 7 mph from Northwest

Location: Dawson Creek Airport

Current Time: May 25, 2015 at 1:49:27 PM

Latest Report: May 25, 2015 at 1:00 PM


Visibility: 9 mi

Pressure: 29.89 "Hg

Humidity: 31%

Dew point: 43 °F

Location of Dawson CreekLocation

Historic Weather in Dawson Creek — Graph

°F

Dawson Creek temperature yesterday

Maximum temperature yesterday: 77 °F (at 1:00 PM)
Minimum temperature yesterday: 43 °F (at 5:00 AM)
Average temperature yesterday: 62 °F

Past Weeks' High & Low Weather Summary

 TemperatureHumidityPressure
High81 °F (May 23, 2:00 PM)93% (May 12, 5:00 AM)30.40 "Hg (May 12, 5:00 AM)
Low23 °F (May 17, 5:00 AM)15% (May 12, 1:00 PM)29.81 "Hg (May 14, 8:00 PM)
Average56 °F48%30.05 "Hg
* Reported May 10 12:00 Noon — May 25 12:00 Noon, Dawson Creek, Weather by CustomWeather, © 2015

Note: Actual official high and low records may vary slightly from our data, if they occured in-between our weather recording intervals... More about our weather records

Advertising

Dawson Creek weather history for previous 24 hours

 ConditionsComfort  
Time TempWeatherWind HumidityBarometerVisibility
12:00 PM
Mon, May 25
73 °FSunny.7 mph36%29.90 "Hg9 mi
11:00 AM70 °FSunny.6 mph43%29.90 "Hg9 mi
10:00 AM66 °FSunny.6 mph49%29.90 "Hg9 mi
9:00 AM63 °FSunny.9 mph56%29.90 "Hg9 mi
8:00 AM59 °FSunny.2 mph63%29.89 "Hg9 mi
7:00 AM52 °FSunny.2 mph77%29.90 "Hg9 mi
6:00 AM45 °FSunny.No wind81%29.90 "Hg9 mi
5:00 AM41 °FClear.5 mph93%29.90 "Hg9 mi
4:00 AM43 °FClear.8 mph93%29.90 "Hg9 mi
3:00 AM46 °FClear.2 mph82%29.90 "Hg9 mi
2:00 AM46 °FClear.8 mph82%29.91 "Hg9 mi
1:00 AM48 °FClear.2 mph82%29.90 "Hg9 mi
12:00 AM50 °FClear.2 mph71%29.91 "Hg9 mi
11:00 PM
Sun, May 24
54 °FClear.2 mph67%29.91 "Hg9 mi
10:00 PM55 °FSunny.2 mph59%29.90 "Hg9 mi
9:00 PM63 °FSunny.2 mph45%29.90 "Hg9 mi
8:00 PM68 °FPartly sunny.8 mph35%29.89 "Hg9 mi
7:00 PM75 °FPartly sunny.9 mph25%29.89 "Hg9 mi
6:00 PM75 °FPartly sunny.3 mph25%29.90 "Hg9 mi
5:00 PM77 °FPassing clouds.10 mph24%29.91 "Hg9 mi
4:00 PM73 °FSunny.10 mph23%29.91 "Hg9 mi
3:00 PM77 °FPassing clouds.13 mph22%29.93 "Hg9 mi
2:00 PM73 °FPartly sunny.8 mph27%29.95 "Hg9 mi
1:00 PM77 °FPassing clouds.15 mph26%29.95 "Hg9 mi
Weather by CustomWeather, © 2015

See weather overviewHow to use our weather pages